Location: Oakhurst
(33.6448°N, 111.9543°W)
Time: 05:52:33
(UTC+00:00)

Max Valier Satellite - Pass Details

Date: 03 August 2021
Orbit: 486 x 502 km, 97.2° (Epoch: 23 September)

Event Time Altitude Azimuth Distance (km) Brightness Sun altitude
Exits shadow 04:45:08 11° 237° (WSW) 1,635 ? -25.0°
Maximum altitude 04:46:52 14° 266° (W) 1,454 ? -25.2°
Drops below altitude 10° 04:48:45 10° 298° (WNW) 1,675 ? -25.5°
Sets 04:51:43 0° 325° (NW) 2,565 ? -25.9°
